Regional Weather Roundup
Issued by NWS Mobile, AL

Home | Current Version | Previous Version | Text Only | Print | Product List | Glossary On
Versions: 1 2 3 4 5 6 7 8 9 10 11 12 13 14 15 16 17 18 19 20 21 22 23 24 25 26 27 28 29 30 31 32 33 34 35 36 37 38 39 40 41 42 43 44 45 46 47 48 49 50
000
ASUS44 KMOB 240410
RWRMOB
REGIONAL WEATHER ROUNDUP
NATIONAL WEATHER SERVICE MOBILE AL
1000 PM CST SUN NOV 23 2014

NOTE: "FAIR" INDICATES FEW OR NO CLOUDS BELOW 12,000 FEET WITH NO
      SIGNIFICANT WEATHER AND/OR OBSTRUCTIONS TO VISIBILITY.

  * THESE STATIONS ARE PART OF THE UNIVERSITY OF SOUTH ALABAMA
    MESONET AND ARE NOT UNDER NWS OR FAA QUALITY CONTROL.

ALZ061>064-240500-
COASTAL ALABAMA

CITY           SKY/WX    TMP DP  RH WIND       PRES   REMARKS
MOBILE REG APT CLOUDY    67  67 100 SW15      29.76R
BROOKLEY FIELD PTCLDY    70  67  90 S7        29.78R
USA CAMPUS*      N/A     68  66  94 CALM      29.76R
DOG RIVER*     NOT AVBL


CITY           SKY/WX    TMP DP  RH WIND       PRES   REMARKS
MOUNT VERNON*    N/A     66  64  94 S2        29.75R
SARALAND*      NOT AVBL
BAY MINETTE*   NOT AVBL
LOXLEY*          N/A     68  66  94 S9        29.77R
ROBERTSDALE*     N/A     68  68 100 SW6       29.77R
FAIRHOPE*        N/A     68  68 100 S12       29.77R
ELBERTA*         N/A     68  68 100 S7        29.77R
FOLEY*           N/A     66  64  94 SW3       29.77R
GRAND BAY*       N/A     68  66  94 SW6       29.75R
DAUPHIN ISLND* NOT AVBL
BON SCOUR NWR* NOT AVBL
GULF SHORES    CLEAR     68  67  97 S7        29.77R

$$

ALZ051>060-240500-
INTERIOR SOUTHWEST AND SOUTH CENTRAL ALABAMA

CITY           SKY/WX    TMP DP  RH WIND       PRES   REMARKS
GREENVILLE     CLOUDY    65  62  90 SW10G18   29.74S
EVERGREEN      CLOUDY    67  64  90 SW14G22   29.76R
CASTLEBERRY*   NOT AVBL
ATMORE*          N/A     66  66 100 S10       29.78R
DIXIE*           N/A     66  66 100 S5        29.76R
ANDALUSIA/OPP  CLOUDY    69  64  84 SW5       29.78R
ANDALUSIA*       N/A     66  64  94 SW9       29.78R
FLORALA APT    MOCLDY    68  66  94 SW10      29.80R
FLORALA*         N/A     66  64  94 SW3       29.77R

$$

FLZ001>006-240500-
WESTERN FLORIDA PANHANDLE

CITY           SKY/WX    TMP DP  RH WIND       PRES   REMARKS
PENSACOLA      CLOUDY    67  67 100 S13       29.78R
NAS PENSACOLA  MOCLDY    68  67  96 S10       29.77S
MILTON         CLOUDY    68  66  93 S14       29.78R
WHTNG S FIELD  CLOUDY    70  67  90 S6        29.78S


CITY           SKY/WX    TMP DP  RH WIND       PRES   REMARKS
WALNUT HILL*   NOT AVBL
JAY*             N/A     66  64  94 S16       29.78R
DUKE FIELD     CLOUDY    69  68  96 S10       29.79R
CRESTVIEW      CLOUDY    69  68  96 S10       29.80R
VALPARAISO     CLOUDY    68  66  96 SW8       29.79S
DESTIN         MOCLDY    71  68  90 S8        29.79S

$$

MSZ076-079-240500-
INTERIOR SOUTHEAST MISSISSIPPI

CITY           SKY/WX    TMP DP  RH WIND       PRES   REMARKS
LEAKESVILLE*     N/A     66  64  94 S10       29.74R
AGRICOLA*      NOT AVBL

$$

MARINE OBSERVATIONS

STATION/POSITION TIME  TEMP    WIND        PRES    WAVE
                       AIR SEA DIR/SP/G            HT/PER
                 (UTC) (F)     (DEG/KT/KT) (MB)    (FT/S)
PASCAGOULA       0400   67     200/  9/ 14 1007.5R
PETIT BOIS ISLND 0400   69     200/ 14/ 15 1008.0R
GRAND BAY        0300   64     200/ 13     1007.0S
KATRINA CUT      0300   67     200/ 16     1008.1R
CEDAR POINT      0300   65     200/ 15     1007.5R
E DAUPHIN ISLAND 0254   68     190/ 10/ 15 1007.3R
USCG MOBILE BAY  0400   69 60  210/  5/ 11 1006.4S
STATE DOCKS      0400   69 59              1007.2S
MEAHER PARK      0300   62     170/  9     1007.8R
WEEKS BAY        0300   65                   N/A
FORT MORGAN      0400   69     220/ 19/ 20 1007.5R
12 S ORANGE BCH  0400   71 69  190/ 12/ 14 1007.4S   6/ 8
PENSACOLA BAY    0400   68 60  160/  4/  6 1008.4R
64 S DAUPHIN ISL 0320   73 72  190/ 14/ 16 1008.8R   6/ 7
67 S FORT MORGAN 0300   73     190/ 19     1008.5

$$

SELECTED LOCATIONS ACROSS THE REGION

CITY           SKY/WX    TMP DP  RH WIND       PRES   REMARKS
NEW ORLEANS    PTCLDY    64  62  93 S8        29.74R
GULFPORT       CLOUDY    67  65  93 S8        29.75R
PASCAGOULA AP  MOCLDY    68  67  96 S9G18     29.76R
PASCAGOULA*      N/A     66  66 100 SW5       29.76R
HATTIESBURG    MOCLDY    65  62  90 S9        29.72S
LAUREL         CLEAR     63  57  82 S10G16    29.71R
MERIDIAN       CLEAR     61  58  90 S16       29.65R
JACKSON        CLEAR     64  59  83 S15G23    29.64R
MONTGOMERY     PTCLDY    63  59  87 S8        29.73S
TROY           CLOUDY    65  62  90 SW10G20   29.78R
KINSTON*       NOT AVBL
GENEVA*          N/A     66  64  94 SW3       29.82R
ASHFORD*         N/A     66  64  94 SW9       29.78R
DOTHAN         CLOUDY    66  64  93 S13       29.83R
PANAMA CITY    CLOUDY    64  63  96 SE9       29.82R

$$




USA.gov is the U.S. government's official web portal to all federal, state and local government web resources and services.